This demonstration page uses our WeatherBlox Daily Observations layout. Learn more.

39.29038, -76.61219

Hourly Observations for December 17, 2019

Temp ( °F °C ) Dew Point ( °F °C ) Humidity (%) Winds ( mph kmh ) Pressure ( in mb ) Visibility ( mi km ) Precip ( " mm )
12:54 am 00:54 undefined 36 2.2 34 1.1 93 93 undefined N/A 30.06 1018 N/A 0.07 1.778
1:54 am 01:54 undefined 37 2.8 34 1.1 89 89 undefined N/A 30.04 1017 N/A 0.07 1.778
2:54 am 02:54 undefined 37 2.8 34 1.1 89 89 undefined N/A 29.98 1015 N/A 0.01 0.254
3:54 am 03:54 undefined 37 2.8 35 1.7 93 93 undefined N/A 29.93 1014 N/A 0.03 0.762
4:54 am 04:54 undefined 37 2.8 35 1.7 93 93 undefined N/A 29.88 1012 N/A 0.01 0.254
5:54 am 05:54 undefined 38 3.3 36 2.2 93 93 undefined N/A 29.88 1012 N/A 0 0
6:54 am 06:54 undefined 38 3.3 36 2.2 93 93 undefined N/A 29.85 1011 N/A 0 0
7:54 am 07:54 undefined 38 3.3 36 2.2 93 93 undefined N/A 29.83 1010 N/A 0 0
8:54 am 08:54 undefined 38 3.3 37 2.8 97 97 undefined N/A 29.81 1010 N/A 0 0
9:54 am 09:54 undefined 39 3.9 38 3.3 96 96 undefined N/A 29.78 1009 N/A 0 0
10:54 am 10:54 undefined 39 3.9 38 3.3 96 96 undefined N/A 29.75 1008 N/A 0 0
11:54 am 11:54 undefined 40 4.4 38 3.3 93 93 undefined N/A 29.7 1006 N/A 0 0
12:54 pm 12:54 undefined 40 4.4 38 3.3 93 93 undefined N/A 29.68 1005 N/A 0 0
1:54 pm 13:54 undefined 41 5 38 3.3 89 89 undefined N/A 29.66 1005 N/A 0 0
2:54 pm 14:54 undefined 41 5 38 3.3 89 89 undefined N/A 29.68 1005 N/A 0 0
3:54 pm 15:54 undefined 42 5.6 37 2.8 82 82 undefined N/A 29.71 1006 N/A 0 0
4:54 pm 16:54 undefined 41 5 35 1.7 79 79 undefined N/A 29.73 1007 N/A 0 0
5:54 pm 17:54 undefined 40 4.4 34 1.1 79 79 undefined N/A 29.72 1007 N/A 0.01 0.254
6:54 pm 18:54 undefined 41 5 33 0.6 73 73 undefined N/A 29.76 1008 N/A 0 0
7:54 pm 19:54 undefined 42 5.6 32 0 68 68 undefined N/A 29.77 1008 N/A 0 0
8:54 pm 20:54 undefined 41 5 32 0 70 70 undefined N/A 29.81 1010 N/A 0 0
9:54 pm 21:54 undefined 41 5 30 -1.1 65 65 undefined N/A 29.82 1010 N/A 0 0
10:54 pm 22:54 undefined 40 4.4 28 -2.2 63 63 undefined N/A 29.85 1011 N/A 0 0
11:54 pm 23:54 undefined 40 4.4 27 -2.8 60 60 undefined N/A 29.86 1011 N/A 0 0

Powered by AerisWeather